Weather History for Garden City, KS

Change the Weather History Date:

Monday, December 31, 2012

  Actual Average Record
Temperature  
Mean Temperature 20 °F 30 °F  
Max Temperature 34 °F 43 °F 66 °F (1950)
Min Temperature 6 °F 18 °F -9 °F (1968)
Degree Days  
Heating Degree Days 45 34  
Month to date heating degree days 990 1028  
Since 1 July heating degree days 1970 2123  
Cooling Degree Days 0 0  
Month to date cooling degree days 0 0  
Year to date cooling degree days 1643 1298  
Moisture  
Dew Point 19 °F    
Average Humidity 74    
Maximum Humidity 92    
Minimum Humidity 56    
Precipitation  
Precipitation 0.08 in 0.01 in 0.75 in (1991)
Month to date precipitation 0.70 0.52  
Year to date precipitation 13.37 19.47  
Sea Level Pressure  
Sea Level Pressure 30.02 in    
Wind  
Wind Speed 15 mph (NNE)    
Max Wind Speed 23 mph    
Max Gust Speed 26 mph    
Visibility 2 miles    
Events Fog , Rain , Snow    
T = Trace of Precipitation, MM = Missing Value Source: NWS Daily Summary

Daily Weather History Graph

Daily Weather History Graph

Search for Another Location

Airport:

Trip Planner

Search our weather history database for the weather conditions in past years. The results will help you decide how hot, cold, wet, or windy it might be!

Date:

Astronomy

Dec. 31, 2012 Rise Set
Actual Time 7:58 AM CST 5:33 PM CST
Civil Twilight 7:29 AM CST 6:03 PM CST
Nautical Twilight 6:56 AM CST 6:36 PM CST
Astronomical Twilight 6:24 AM CST 7:08 PM CST
Moon 9:02 PM CST 9:44 AM CST
Length of Visible Light 10h 33m
Length of Day
9h 35m
Waning Gibbous, 90% of the Moon is Illuminated
Dec 31
Waning Gibbous
Jan 4
Last Quarter
Jan 11
New
Jan 18
First Quarter
Jan 26
Full

Hourly Weather History & Observations

Time (CST) Temp. Windchill Dew Point Humidity Pressure Visibility Wind Dir Wind Speed Gust Speed Precip Events Conditions
12:54 AM 30.0 °F 22.4 °F 21.0 °F 69% 30.02 in 10.0 mi ENE 8.1 mph - N/A   Clear
1:54 AM 28.9 °F 20.4 °F 21.0 °F 72% 30.01 in 10.0 mi ENE 9.2 mph - N/A   Clear
2:54 AM 28.9 °F 19.2 °F 19.9 °F 69% 30.02 in 10.0 mi NE 11.5 mph - N/A   Overcast
3:54 AM 28.0 °F 17.0 °F 19.9 °F 72% 30.02 in 6.0 mi NE 13.8 mph - 0.00 in Snow Light Snow
4:38 AM 26.6 °F 15.2 °F 21.2 °F 80% 29.96 in 2.5 mi NE 13.8 mph - 0.00 in Snow Light Snow
4:49 AM 26.6 °F 15.7 °F 21.2 °F 80% 29.96 in 1.5 mi NE 12.7 mph - 0.00 in Snow Light Snow
4:54 AM 26.1 °F 14.5 °F 21.9 °F 84% 30.00 in 1.2 mi NE 13.8 mph - 0.00 in Snow Light Snow
5:08 AM 24.8 °F 14.0 °F 21.2 °F 86% 29.95 in 0.8 mi NE 11.5 mph - 0.00 in Snow Light Snow
5:32 AM 24.8 °F 12.9 °F 23.0 °F 93% 29.96 in 0.8 mi NE 13.8 mph - 0.01 in Snow Light Snow
5:54 AM 24.1 °F 13.1 °F 23.0 °F 96% 30.01 in 0.8 mi NE 11.5 mph - 0.02 in Snow Light Snow
6:14 AM 24.8 °F 12.9 °F 21.2 °F 86% 29.94 in 1.0 mi NE 13.8 mph - 0.01 in Snow Light Snow
6:29 AM 24.8 °F 12.4 °F 23.0 °F 93% 29.94 in 1.2 mi NE 15.0 mph - 0.01 in Snow Light Snow
6:39 AM 24.8 °F 13.4 °F 23.0 °F 93% 29.94 in 0.8 mi NE 12.7 mph - 0.01 in Snow Light Snow
6:54 AM 25.0 °F 13.1 °F 23.0 °F 92% 30.00 in 1.0 mi NE 13.8 mph - 0.02 in Snow Light Snow
7:07 AM 24.8 °F 13.4 °F 23.0 °F 93% 29.94 in 2.0 mi NE 12.7 mph - 0.00 in Snow Light Snow
7:20 AM 24.8 °F 13.4 °F 23.0 °F 93% 29.95 in 1.2 mi NE 12.7 mph - 0.00 in Snow Light Snow
7:36 AM 24.8 °F 14.0 °F 23.0 °F 93% 29.95 in 0.8 mi NE 11.5 mph - 0.00 in Snow Light Snow
7:49 AM 24.8 °F 13.4 °F 23.0 °F 93% 29.94 in 1.0 mi NE 12.7 mph - 0.01 in Snow Light Snow
7:54 AM 25.0 °F 13.6 °F 23.0 °F 92% 30.00 in 0.8 mi NE 12.7 mph - 0.01 in Snow Light Snow
8:27 AM 24.8 °F 11.5 °F 21.2 °F 86% 29.94 in 0.8 mi NNE 17.3 mph - 0.00 in Snow Light Snow
8:47 AM 24.8 °F 11.5 °F 21.2 °F 86% 29.95 in 1.2 mi NNE 17.3 mph - 0.00 in Snow Light Snow
8:54 AM 24.1 °F 10.6 °F 21.9 °F 91% 30.02 in 1.2 mi NNE 17.3 mph - 0.00 in Snow Light Snow
9:14 AM 24.8 °F 11.1 °F 21.2 °F 86% 29.97 in 0.5 mi NE 18.4 mph - 0.01 in Fog , Snow Snow
9:24 AM 24.8 °F 12.4 °F 21.2 °F 86% 29.97 in 0.5 mi NNE 15.0 mph - 0.01 in Fog , Snow Snow
9:34 AM 24.8 °F 11.5 °F 21.2 °F 86% 29.97 in 0.2 mi NNE 17.3 mph - 0.01 in Fog , Snow Snow
9:54 AM 21.9 °F 8.2 °F 19.9 °F 92% 30.05 in 0.2 mi NNE 16.1 mph - 0.01 in Fog , Snow Snow
10:05 AM 21.2 °F 6.4 °F 19.4 °F 93% 29.98 in 0.5 mi NNE 18.4 mph - 0.00 in Fog , Snow Snow
10:31 AM 21.2 °F 6.4 °F 19.4 °F 93% 29.98 in 0.2 mi NNE 18.4 mph - 0.01 in Fog , Snow Snow
10:54 AM 21.0 °F 6.2 °F 19.0 °F 92% 30.06 in 0.2 mi NNE 18.4 mph - 0.01 in Fog Light Freezing Fog
11:21 AM 21.2 °F 6.4 °F 19.4 °F 93% 29.99 in 0.5 mi NNE 18.4 mph - N/A Fog Light Freezing Fog
11:36 AM 21.2 °F 6.8 °F 19.4 °F 93% 29.99 in 0.2 mi NNE 17.3 mph - 0.01 in Fog Light Freezing Fog
11:54 AM 21.0 °F 5.7 °F 19.0 °F 92% 30.06 in 0.5 mi North 19.6 mph - 0.01 in Fog Light Freezing Fog
12:12 PM 21.2 °F 6.0 °F 19.4 °F 93% 29.99 in 1.0 mi North 19.6 mph - N/A   Overcast
12:54 PM 21.0 °F 5.0 °F 18.0 °F 88% 30.04 in 1.2 mi NNE 21.9 mph - 0.00 in Snow Light Snow
1:01 PM 21.2 °F 6.8 °F 17.6 °F 86% 29.96 in 0.8 mi NNE 17.3 mph - 0.00 in Snow Light Snow
1:21 PM 21.2 °F 5.2 °F 17.6 °F 86% 29.95 in 1.0 mi North 21.9 mph - 0.00 in Snow Light Snow
1:32 PM 21.2 °F 5.6 °F 17.6 °F 86% 29.95 in 0.8 mi North 20.7 mph - 0.00 in Snow Light Snow
1:47 PM 21.2 °F 5.2 °F 17.6 °F 86% 29.95 in 1.0 mi North 21.9 mph - 0.00 in Snow Light Snow
1:54 PM 21.0 °F 4.6 °F 18.0 °F 88% 30.03 in 1.2 mi North 23.0 mph - 0.00 in Snow Light Snow
2:16 PM 21.2 °F 5.6 °F 17.6 °F 86% 29.95 in 1.2 mi NNE 20.7 mph - 0.00 in Snow Light Snow
2:45 PM 21.2 °F 6.8 °F 19.4 °F 93% 29.96 in 1.0 mi NNE 17.3 mph - 0.00 in Snow Light Snow
2:54 PM 21.9 °F 6.5 °F 18.0 °F 85% 30.04 in 1.0 mi North 20.7 mph - 0.00 in Snow Light Snow
3:39 PM 21.2 °F 8.3 °F 17.6 °F 86% 29.98 in 1.2 mi NNE 13.8 mph - 0.00 in Snow Light Snow
3:54 PM 21.0 °F 6.6 °F 18.0 °F 88% 30.07 in 1.2 mi NNE 17.3 mph - 0.00 in Snow Light Snow
4:54 PM 19.9 °F 5.7 °F 17.1 °F 89% 30.09 in 2.0 mi NNE 16.1 mph - 0.00 in Snow Light Snow
5:33 PM 19.4 °F 4.1 °F 17.6 °F 93% 30.01 in 1.5 mi NNE 18.4 mph - 0.00 in Snow Light Snow
5:39 PM 19.4 °F 4.5 °F 15.8 °F 86% 30.01 in 1.2 mi NNE 17.3 mph - 0.00 in Snow Light Snow
5:54 PM 19.0 °F 5.0 °F 16.0 °F 88% 30.12 in 1.2 mi NNE 15.0 mph - 0.00 in Snow Light Snow
6:03 PM 19.4 °F 5.5 °F 15.8 °F 86% 30.02 in 2.0 mi NNE 15.0 mph - 0.00 in Snow Light Snow
6:23 PM 19.4 °F 5.5 °F 15.8 °F 86% 30.03 in 1.8 mi NNE 15.0 mph - 0.00 in Snow Light Snow
6:30 PM 19.4 °F 6.6 °F 15.8 °F 86% 30.04 in 2.0 mi NNE 12.7 mph - 0.00 in Snow Light Snow
6:54 PM 19.4 °F 6.0 °F 15.8 °F 86% 30.04 in 2.5 mi NNE 13.8 mph - N/A Snow Light Snow
7:02 PM 17.6 °F 3.2 °F 15.8 °F 93% 30.05 in 3.0 mi NNE 15.0 mph - 0.00 in Snow Light Snow
7:54 PM 18.0 °F 4.8 °F 15.1 °F 88% 30.16 in 3.0 mi NNE 12.7 mph - 0.00 in Snow Light Snow
8:54 PM 17.1 °F 3.6 °F 14.0 °F 88% 30.19 in 4.0 mi NNE 12.7 mph - 0.00 in Snow Light Snow
9:16 PM 17.6 °F 7.3 °F 14.0 °F 86% 30.09 in 4.0 mi NNE 8.1 mph - 0.00 in Snow Light Snow
9:33 PM 17.6 °F 9.3 °F 14.0 °F 86% 30.10 in 3.0 mi NNE 5.8 mph - 0.00 in Snow Light Snow
9:54 PM 16.0 °F 5.3 °F 12.9 °F 88% 30.22 in 3.0 mi NNE 8.1 mph - 0.00 in Snow Light Snow
10:54 PM 10.9 °F -0.8 °F 8.1 °F 88% 30.24 in 3.0 mi NNW 8.1 mph - 0.00 in Snow Light Snow
11:22 PM 10.4 °F -3.3 °F 8.6 °F 92% 30.12 in 6.0 mi North 10.4 mph - 0.00 in Rain Light Freezing Rain
11:54 PM 6.1 °F -5.6 °F 5.0 °F 95% 30.26 in 5.0 mi North 6.9 mph - 0.00 in Rain Light Freezing Rain